{"data":{"norad_id":53975,"intl_designator":"2022-125M","name":"STARLINK-5137","alt_names":[],"object_type":"PAYLOAD","status":"ACTIVE","operator":null,"country":"US","launch_date":"2022-10-05","launch_site_code":"AFWTR","launch_vehicle":null,"mission":null,"orbit_class":"UNKNOWN","rcs_meters":null,"size_class":null,"mass_kg":null,"dimensions":null,"purposes":["comms"],"wikipedia_slug":null,"has_3d_model":false,"image_url":null,"decayed_at":null,"tle_current":{"epoch":"2026-09-20T22:23:59.653248Z","epoch_age_seconds":49234,"freshness":"FRESH","line1":"1 53975U 22125M   26263.93332932 -.00001103  00000+0 -51241-4 0  9997","line2":"2 53975  53.1612  61.5472 0001317  91.2549 268.8593 15.08827958218876","mean_motion":15.08827958,"eccentricity":0.0001317,"inclination_deg":53.1612,"raan_deg":61.5472,"arg_perigee_deg":91.2549,"mean_anomaly_deg":268.8593,"bstar":-5.1241e-5,"rev_number":21887,"period_min":95.438316367677,"perigee_km":538.86910709061,"apogee_km":540.69128648025,"semimajor_km":6917.9171967854,"source":"CELESTRAK","updated_at":"2026-09-21T09:00:33.040982Z"}}}